Terug naar catalogus

SL-12 DEB

LostHEO
NORAD 44541·DEBRIS·🇷🇺 Russia

Gelanceerd Sep 2, 2010 vanaf Baikonur Cosmodrome

Loading…

Volgende Passages (komende 24 uur)

TLE

VerouderdSource: Space-Track

Epoch: Nov 11, 2023, 04:42 UTC

1 44541U 10041Y   23315.19593442  .00007040  00000-0  19189-1 0  9995
2 44541  65.4252  17.0433 5482223 312.6604  12.6486  4.58698762100979

Volg SL-12 DEB in realtime met AllMySat

Download on the App Store